Showing default

TJS-27B, 100176

Orbit data source: Space-Track

TJS-27B, 100176 is a payload satellite owned by PLA SSF (CN) in LEO that was launched on Thu, 30 Jul 2026 UTC launched from the Taiyaun Space Center, China (TSC). Payload-class satellites include a variety of spacecraft equipped with specific instruments for various scientific and technological missions. These include communications satellites like Starlink; space stations such as the ISS; scientific satellites like the Hubble; Earth observation satellites from companies like Planet Labs, Umbra, and HawkEye 360; GPS; miniature CubeSats for education and research; and military/defense satellites.

Loading next visibility...
Identifier
100176, 2026-173C
Orbit
LEO
Country
Flag of CNCN / PRC
Related business
Manufacturer
SAST
Mission
Operational spacecraft
Bus & Motor
TJS26B, YF-115
Mass
~1,000 kg wet, ~1,000 kg dry
Launch date (UTC)
2026-07-30 (2 weeks ago)
Launch vehicle
Unknown
Launch site
Taiyaun Space Center, China (TSC)
Object type
Payload
Rocket body
Debris
Shape & HBR
BOX + 2 PAN, 14.5 m
Radar Cross Section
Large (>1 m²)

Expand to show TLE details & history
Last TLE update: 8 hours ago

TLE from 8 hours ago
0 TJS-27B
1 A0176U 26173C   26227.57991340 -.00000072  00000-0  12370-4 0  9997
2 A0176  64.7863 236.7677 0005707 244.9233 115.1205 13.28334357  2202
Epoch: 2026-08-15T13:55Z
TLE epoch observation values (Epoch: 2026-08-15T13:55:04.517Z)
Latitude
-0.00001°
Longitude
64.01012°
Altitude
1,156.739 km
Speed
7.274 km/s
True Right ascension
15h 47m 04s
True Declination
0° 00' 00"
Sunlit
Object was in daylight at epoch
Visualization orbit readout
Latitude
Unknown
Longitude
Unknown
Altitude
Unknown
Speed
Unknown
Apparent Right ascension
Unknown
Apparent Declination
Unknown
Sunlit
N/A
Visualization observer readout
Local Sidereal Time
12:46:58
Azimuth
Unknown
Elevation
Unknown
Doppler factor
Unknown
Orbital elements
Apogee altitude
1,156.022 km
Perigee altitude
1,147.428 km
Semi-major axis
7,529.862 km
Eccentricity
0.00057
Inclination
64.7863°
RAAN
236.7677°
Arg. of periapsis
244.9233°
True anomaly
115.17969°
Mean anomaly
115.1205°
Eccentric anomaly
115.1501°
Mean motion
3.32172 °/min
Orbital period
108.38 mins
BSTAR
0.00001237
Loading maneuver chart data...
Computing Atmospheric mass density...
Loading historical data...
Loading historical data...
Loading historical data...
Loading historical data...
Loading historical data...
Loading historical data...
Loading historical data...
Other satellites on launch #173 in the year 2026 (2026-07-30 UTC)

Documentation

Showing up to 5 results
|